Dover AFB, DE

7:46 AM EST on January 24, 2018 (GMT -0500)
Dover Air Force Base

Weather History for KDOV - December, 2012

Change the Weather History Date:

Sunday, December 9, 2012

  Actual Average Record
Temperature  
Mean Temperature 48 °F -  
Max Temperature 50 °F 51 °F 73 °F (1966)
Min Temperature 46 °F 33 °F 13 °F (1976)
Degree Days  
Heating Degree Days 17    
Moisture  
Dew Point 48 °F    
Average Humidity 100    
Maximum Humidity 100    
Minimum Humidity 99    
Precipitation  
Precipitation 0.15 in - - ()
Sea Level Pressure  
Sea Level Pressure 30.09 in    
Wind  
Wind Speed 4 mph (NNE)    
Max Wind Speed 13 mph    
Max Gust Speed -    
Visibility 3 miles    
Events Fog , Rain    
Averages and records for this station are not official NWS values.
T = Trace of Precipitation, MM = Missing Value Source: NWS Daily Summary

Daily Weather History Graph

Daily Weather History Graph

Search for Another Location

Airport or City:

Trip Planner

Search our weather history database for the weather conditions in past years. The results will help you decide how hot, cold, wet, or windy it might be!

Date:

Astronomy

Dec. 09, 2012 Rise Set
Actual Time 7:09 AM EST 4:39 PM EST
Civil Twilight 6:39 AM EST 5:09 PM EST
Nautical Twilight 6:06 AM EST 5:42 PM EST
Astronomical Twilight 5:33 AM EST 6:14 PM EST
Moon 2:41 AM EST (12/9) 1:43 PM EST (12/9)
Length of Visible Light 10h 29m
Length of Day
9h 29m
Waning Crescent, 19% of the Moon is Illuminated
Dec 9
Waning Crescent
Dec 13
New
Dec 20
First Quarter
Dec 28
Full
Jan 4
Last Quarter

Hourly Weather History & Observations

Time (EST) Temp. Windchill Dew Point Humidity Pressure Visibility Wind Dir Wind Speed Gust Speed Precip Events Conditions
12:07 AM 50.0 °F - 50.0 °F 100% 30.03 in 0.5 mi Calm Calm - N/A Fog Fog
12:10 AM 50.0 °F - 50.0 °F 100% 30.03 in 0.5 mi Calm Calm - N/A Fog Fog
12:16 AM 50.0 °F - 50.0 °F 100% 30.04 in 0.8 mi Calm Calm - N/A   Mist
12:18 AM 50.0 °F - 50.0 °F 100% 30.04 in 0.8 mi Calm Calm - N/A   Mist
12:22 AM 50.0 °F - 50.0 °F 100% 30.04 in 1.0 mi Calm Calm - N/A   Mist
12:23 AM 50.0 °F - 50.0 °F 100% 30.04 in 1.0 mi Calm Calm - N/A   Mist
12:25 AM 50.0 °F - 50.0 °F 100% 30.04 in 1.2 mi Calm Calm - N/A   Scattered Clouds
12:26 AM 50.0 °F - 50.0 °F 100% 30.04 in 1.2 mi Calm Calm - N/A   Mostly Cloudy
12:33 AM 50.0 °F - 50.0 °F 100% 30.04 in 1.0 mi Calm Calm - N/A   Mist
12:36 AM 50.0 °F - 50.0 °F 100% 30.04 in 1.0 mi Calm Calm - N/A   Mist
12:37 AM 50.0 °F - 50.0 °F 100% 30.04 in 0.8 mi Calm Calm - N/A   Mist
12:40 AM 50.0 °F - 50.0 °F 100% 30.04 in 0.8 mi Calm Calm - N/A   Mist
12:41 AM 50.0 °F - 50.0 °F 100% 30.04 in 0.8 mi Calm Calm - N/A Rain Light Rain
12:43 AM 50.0 °F - 50.0 °F 100% 30.04 in 0.5 mi Calm Calm - N/A Fog , Rain Light Rain
12:45 AM 50.0 °F - 50.0 °F 100% 30.04 in 0.5 mi Calm Calm - N/A Fog , Rain Light Rain
12:48 AM 50.0 °F - 50.0 °F 100% 30.04 in 0.8 mi Calm Calm - N/A Rain Light Rain
12:55 AM 50.2 °F - 50.2 °F 100% 30.04 in 0.5 mi Calm Calm - 0.00 in Fog Light Drizzle
12:59 AM 50.0 °F - 50.0 °F 100% 30.04 in 0.5 mi Calm Calm - N/A Fog , Rain Light Rain
1:05 AM 50.0 °F - 50.0 °F 100% 30.03 in 0.5 mi East 3.5 mph - N/A Fog Fog
1:21 AM 50.0 °F - 50.0 °F 100% 30.04 in 0.5 mi Calm Calm - N/A Fog Fog
1:33 AM 50.0 °F - 50.0 °F 100% 30.04 in 0.2 mi Calm Calm - N/A Fog Fog
1:55 AM 49.1 °F - 49.1 °F 100% 30.05 in 0.2 mi Calm Calm - 0.00 in Fog Fog
2:55 AM 49.5 °F - 49.5 °F 100% 30.06 in 0.2 mi Calm Calm - N/A Fog Fog
3:55 AM 49.3 °F - 49.3 °F 100% 30.07 in 0.2 mi NNE 3.5 mph - N/A Fog Fog
4:40 AM 48.2 °F - 48.2 °F 100% 30.09 in 0.2 mi Calm Calm - N/A Fog , Rain Light Rain
4:55 AM 48.4 °F - 48.4 °F 100% 30.09 in 0.2 mi Calm Calm - 0.01 in Fog , Rain Light Rain
4:56 AM 48.2 °F - 48.2 °F 100% 30.09 in 0.2 mi Calm Calm - N/A Fog Fog
5:00 AM 48.2 °F - 48.2 °F 100% 30.09 in 0.5 mi Calm Calm - N/A Fog Fog
5:13 AM 48.2 °F - 48.2 °F 100% 30.10 in 0.5 mi Calm Calm - N/A Fog Fog
5:48 AM 48.2 °F - 48.2 °F 100% 30.10 in 0.5 mi NE 3.5 mph - N/A Fog Fog
5:53 AM 48.2 °F - 48.2 °F 100% 30.10 in 0.5 mi NNE 3.5 mph - N/A Fog Fog
5:55 AM 47.7 °F - 47.7 °F 100% 30.10 in 0.5 mi NNE 4.6 mph - N/A Fog Fog
5:57 AM 48.2 °F - 48.2 °F 100% 30.10 in 0.8 mi NNE 4.6 mph - N/A   Mist
6:08 AM 48.2 °F - 48.2 °F 100% 30.11 in 0.5 mi NE 3.5 mph - N/A Fog Fog
6:09 AM 48.2 °F - 48.2 °F 100% 30.11 in 0.5 mi Calm Calm - N/A Fog Fog
6:36 AM 48.2 °F - 48.2 °F 100% 30.14 in 0.5 mi NNW 5.8 mph - N/A Fog Fog
6:50 AM 48.2 °F - 48.2 °F 100% 30.12 in 0.5 mi NNE 8.1 mph - N/A Fog Fog
6:52 AM 48.2 °F - 48.2 °F 100% 30.12 in 0.5 mi NNE 8.1 mph - N/A Fog , Rain Light Rain
6:55 AM 47.7 °F - 47.7 °F 100% 30.12 in 0.5 mi NNE 6.9 mph - 0.00 in Fog , Rain Light Rain
7:01 AM 48.2 °F - 48.2 °F 100% 30.12 in 0.2 mi NNE 6.9 mph - N/A Fog , Rain Light Rain
7:04 AM 48.2 °F - 48.2 °F 100% 30.13 in 0.2 mi North 8.1 mph - N/A Fog Fog
7:05 AM 48.2 °F - 48.2 °F 100% 30.13 in 0.2 mi North 8.1 mph - N/A Fog Fog
7:21 AM 48.2 °F - 48.2 °F 100% 30.14 in 0.2 mi North 6.9 mph - N/A Fog Fog
7:25 AM 48.2 °F - 48.2 °F 100% 30.15 in 0.2 mi NNW 9.2 mph - N/A Fog Fog
7:38 AM 48.2 °F - 48.2 °F 100% 30.15 in 0.2 mi North 6.9 mph - N/A Fog Fog
7:50 AM 48.2 °F - 48.2 °F 100% 30.16 in 0.2 mi North 8.1 mph - N/A Fog Fog
7:51 AM 48.2 °F - 48.2 °F 100% 30.16 in 0.2 mi North 8.1 mph - N/A Fog Fog
7:55 AM 48.2 °F - 48.2 °F 100% 30.15 in 0.2 mi North 9.2 mph - 0.00 in Fog Fog
8:01 AM 48.2 °F - 48.2 °F 100% 30.15 in 0.5 mi North 9.2 mph - N/A Fog Fog
8:02 AM 48.2 °F - 48.2 °F 100% 30.16 in 0.5 mi North 9.2 mph - N/A Fog , Rain Light Rain
8:04 AM 48.2 °F - 48.2 °F 100% 30.16 in 0.5 mi North 9.2 mph - N/A Fog , Rain Light Rain
8:08 AM 48.2 °F - 48.2 °F 100% 30.16 in 0.8 mi North 9.2 mph - N/A Rain Light Rain
8:10 AM 48.2 °F - 48.2 °F 100% 30.16 in 1.0 mi North 9.2 mph - N/A Rain Light Rain
8:12 AM 48.2 °F - 48.2 °F 100% 30.17 in 1.2 mi North 9.2 mph - N/A Rain Light Rain
8:13 AM 48.2 °F - 48.2 °F 100% 30.17 in 1.5 mi North 9.2 mph - N/A Rain Light Rain
8:15 AM 48.2 °F - 48.2 °F 100% 30.17 in 2.0 mi North 10.4 mph - N/A Rain Light Rain
8:17 AM 48.2 °F - 48.2 °F 100% 30.17 in 3.0 mi North 10.4 mph - N/A Rain Light Rain
8:24 AM 48.2 °F - 48.2 °F 100% 30.17 in 4.0 mi North 8.1 mph - N/A   Mostly Cloudy
8:31 AM 48.2 °F - 48.2 °F 100% 30.17 in 4.0 mi North 11.5 mph - N/A   Mostly Cloudy
8:38 AM 48.2 °F - 48.2 °F 100% 30.16 in 5.0 mi NNE 11.5 mph - N/A Rain Light Rain
8:55 AM 48.7 °F - 48.7 °F 100% 30.19 in 6.0 mi NNE 9.2 mph - 0.00 in Rain Light Rain
9:25 AM 48.2 °F - 48.2 °F 100% 30.19 in 8.0 mi NNE 10.4 mph - N/A   Mostly Cloudy
9:39 AM 48.2 °F - 48.2 °F 100% 30.20 in 10.0 mi NNE 10.4 mph - N/A Rain Light Rain
9:55 AM 48.2 °F - 48.2 °F 100% 30.22 in 10.0 mi North 11.5 mph - 0.02 in   Light Drizzle
10:09 AM 48.2 °F - 48.2 °F 100% 30.20 in 8.0 mi NE 11.5 mph - N/A   Mostly Cloudy
10:31 AM 48.2 °F - 48.2 °F 100% 30.20 in 10.0 mi NNE 12.7 mph - N/A   Overcast
10:32 AM 48.2 °F - 48.2 °F 100% 30.20 in 10.0 mi NE 11.5 mph - N/A   Overcast
10:48 AM 48.2 °F - 48.2 °F 100% 30.19 in 10.0 mi NE 10.4 mph - N/A   Overcast
10:51 AM 48.2 °F - 48.2 °F 100% 30.19 in 10.0 mi NE 11.5 mph - N/A   Overcast
10:55 AM 48.7 °F - 48.6 °F 99% 30.19 in 10.0 mi NE 11.5 mph - 0.00 in   Overcast
11:08 AM 48.2 °F - 48.2 °F 100% 30.18 in 10.0 mi NE 10.4 mph - N/A   Overcast
11:17 AM 48.2 °F - 48.2 °F 100% 30.18 in 10.0 mi NE 9.2 mph - N/A   Overcast
11:24 AM 48.2 °F - 48.2 °F 100% 30.18 in 10.0 mi NE 10.4 mph - N/A   Overcast
11:34 AM 48.2 °F - 48.2 °F 100% 30.17 in 10.0 mi NE 10.4 mph - N/A   Overcast
11:55 AM 48.9 °F - 48.9 °F 100% 30.17 in 10.0 mi NE 6.9 mph - N/A   Overcast
12:55 PM 49.5 °F - 49.5 °F 100% 30.14 in 10.0 mi ENE 5.8 mph - N/A   Overcast
1:53 PM 50.0 °F - 50.0 °F 100% 30.13 in 10.0 mi ENE 9.2 mph - N/A   Overcast
1:55 PM 49.3 °F - 49.3 °F 100% 30.13 in 10.0 mi East 6.9 mph - N/A   Overcast
2:08 PM 50.0 °F - 50.0 °F 100% 30.12 in 10.0 mi East 8.1 mph - N/A   Overcast
2:45 PM 50.0 °F - 50.0 °F 100% 30.13 in 10.0 mi ENE 8.1 mph - N/A   Overcast
2:55 PM 49.1 °F - 49.1 °F 100% 30.13 in 10.0 mi ENE 10.4 mph - N/A   Overcast
3:55 PM 48.4 °F - 48.4 °F 100% 30.14 in 10.0 mi ENE 11.5 mph - N/A   Overcast
4:49 PM 48.2 °F - 48.2 °F 100% 30.13 in 7.0 mi ENE 10.4 mph - N/A   Overcast
4:55 PM 47.7 °F - 47.7 °F 100% 30.13 in 7.0 mi ENE 9.2 mph - N/A   Overcast
5:12 PM 48.2 °F - 48.2 °F 100% 30.13 in 5.0 mi NE 8.1 mph - N/A   Overcast
5:16 PM 48.2 °F - 48.2 °F 100% 30.13 in 4.0 mi ENE 8.1 mph - N/A   Overcast
5:41 PM 48.2 °F - 48.2 °F 100% 30.12 in 3.0 mi NE 8.1 mph - N/A   Overcast
5:55 PM 47.1 °F - 47.1 °F 100% 30.12 in 3.0 mi NE 6.9 mph - N/A   Overcast
6:03 PM 46.4 °F 43.5 °F 46.4 °F 100% 30.12 in 3.0 mi NE 5.8 mph - N/A   Overcast
6:55 PM 46.9 °F - 46.9 °F 100% 30.11 in 3.0 mi NNE 5.8 mph - N/A   Overcast
7:00 PM 46.4 °F 43.5 °F 46.4 °F 100% 30.11 in 2.5 mi NE 5.8 mph - N/A   Overcast
7:11 PM 46.4 °F 44.3 °F 46.4 °F 100% 30.10 in 2.5 mi ENE 4.6 mph - N/A   Overcast
7:39 PM 46.4 °F 44.3 °F 46.4 °F 100% 30.09 in 3.0 mi NNE 4.6 mph - N/A   Overcast
7:55 PM 47.1 °F - 47.1 °F 100% 30.09 in 3.0 mi NNE 4.6 mph - 0.01 in   Overcast
8:34 PM 46.4 °F 44.3 °F 46.4 °F 100% 30.07 in 2.5 mi NNE 4.6 mph - N/A   Overcast
8:46 PM 48.2 °F - 48.2 °F 100% 30.06 in 1.8 mi ENE 3.5 mph - N/A   Mostly Cloudy
8:49 PM 48.2 °F - 48.2 °F 100% 30.07 in 2.0 mi ENE 3.5 mph - N/A   Mostly Cloudy
8:52 PM 48.2 °F - 48.2 °F 100% 30.08 in 2.0 mi Calm Calm - N/A   Light Drizzle
8:55 PM 47.7 °F - 47.7 °F 100% 30.08 in 2.0 mi Calm Calm - 0.01 in Rain Light Rain
8:57 PM 48.2 °F - 48.2 °F 100% 30.06 in 1.8 mi Calm Calm - N/A Rain Light Rain
9:09 PM 48.2 °F - 48.2 °F 100% 30.05 in 2.0 mi Calm Calm - N/A Rain Rain
9:17 PM 48.2 °F - 48.2 °F 100% 30.05 in 3.0 mi Calm Calm - N/A Rain Light Rain
9:27 PM 48.2 °F - 48.2 °F 100% 30.05 in 4.0 mi North 3.5 mph - N/A Rain Light Rain
9:45 PM 48.2 °F - 48.2 °F 100% 30.04 in 4.0 mi North 3.5 mph - N/A   Overcast
9:52 PM 48.2 °F - 48.2 °F 100% 30.04 in 3.0 mi Calm Calm - N/A   Light Drizzle
9:55 PM 47.3 °F - 47.3 °F 100% 30.04 in 3.0 mi North 3.5 mph - 0.06 in   Light Drizzle
9:57 PM 48.2 °F - 48.2 °F 100% 30.03 in 3.0 mi North 3.5 mph - N/A   Light Drizzle
9:58 PM 48.2 °F - 48.2 °F 100% 30.03 in 2.5 mi North 3.5 mph - N/A Rain Light Rain
10:07 PM 48.2 °F - 48.2 °F 100% 30.03 in 2.0 mi NNW 4.6 mph - N/A Rain Light Rain
10:11 PM 48.2 °F - 48.2 °F 100% 30.04 in 3.0 mi NNW 4.6 mph - N/A Rain Light Rain
10:15 PM 48.2 °F - 48.2 °F 100% 30.03 in 4.0 mi North 3.5 mph - N/A Rain Light Rain
10:25 PM 48.2 °F - 48.2 °F 100% 30.03 in 6.0 mi Calm Calm - N/A   Overcast
10:36 PM 48.2 °F - 48.2 °F 100% 30.02 in 5.0 mi North 4.6 mph - N/A   Light Drizzle
10:39 PM 48.2 °F - 48.2 °F 100% 30.02 in 5.0 mi North 3.5 mph - N/A   Light Drizzle
10:42 PM 48.2 °F - 48.2 °F 100% 30.03 in 4.0 mi NNW 4.6 mph - N/A   Light Drizzle
10:45 PM 48.2 °F - 48.2 °F 100% 30.02 in 4.0 mi NNW 4.6 mph - N/A   Overcast
10:55 PM 47.3 °F - 47.3 °F 100% 30.02 in 4.0 mi NNW 3.5 mph - 0.04 in   Overcast
11:03 PM 48.2 °F - 48.2 °F 100% 30.02 in 4.0 mi NNW 4.6 mph - N/A Rain Light Rain
11:14 PM 48.2 °F - 48.2 °F 100% 30.01 in 2.5 mi North 4.6 mph - N/A Rain Light Rain
11:17 PM 48.2 °F - 48.2 °F 100% 30.01 in 2.0 mi North 4.6 mph - N/A   Overcast
11:19 PM 48.2 °F - 48.2 °F 100% 30.01 in 1.8 mi North 3.5 mph - N/A   Overcast
11:20 PM 48.2 °F - 48.2 °F 100% 30.00 in 1.8 mi North 3.5 mph - N/A   Overcast
11:24 PM 48.2 °F - 48.2 °F 100% 30.01 in 1.2 mi Calm Calm - N/A   Overcast
11:30 PM 48.2 °F - 48.2 °F 100% 30.00 in 1.0 mi North 3.5 mph - N/A   Mist
11:34 PM 48.2 °F - 48.2 °F 100% 30.00 in 1.0 mi NNE 3.5 mph - N/A   Mist
11:37 PM 48.2 °F - 48.2 °F 100% 29.99 in 0.8 mi Calm Calm - N/A   Mist
11:40 PM 48.2 °F - 48.2 °F 100% 30.00 in 0.8 mi Calm Calm - N/A   Mist
11:52 PM 48.2 °F - 48.2 °F 100% 29.99 in 0.8 mi Calm Calm - N/A   Mist
11:53 PM 48.2 °F - 48.2 °F 100% 29.99 in 0.5 mi Calm Calm - N/A Fog Fog
11:55 PM 47.5 °F - 47.5 °F 100% 29.99 in 0.5 mi Calm Calm - 0.00 in Fog Fog